[[{"header":{"parameterUnit":"m.s-1","parameterCategory":1,"la1":30.2991,"la2":30.254,"lo1":-89.0895,"lo2":-89.0444,"dy":0.0017,"dx":0.0017,"nx":28,"ny":28,"refTime":"2024-12-07T03:00:00:Z","depth":0,"parameterNumber":2,"parameterNumberName":"U-component_of_WINDS"},"data":[0,0,0,0,0,0,0,0,0,0,0,0,0,0,0,0,0,0,0,0,0,0,0,0,0,0,0,0,0,0,0,0,0,0,0,0,0,0,0,0,0,0,0,0,0,0,0,0,0,0,0,0,0,0,0,0,0,0,-2.9393,-2.9393,0,-2.9416,-2.9416,-2.9416,-2.9276,-2.9272,-2.9268,-2.9264,-2.929,-2.9294,-2.9298,0,0,0,0,0,0,0,0,0,0,0,0,0,-2.923,-2.9233,-2.9393,-2.9393,-2.9394,-2.9416,-2.9416,-2.9416,-2.9277,-2.9272,-2.9267,-2.9262,-2.9288,-2.9293,-2.9299,0,0,0,0,0,0,0,0,0,0,0,0,0,-2.9282,-2.9235,-2.9393,-2.9327,-2.9321,-2.9415,-2.9416,-2.9416,-2.9278,-2.9272,-2.9266,-2.926,-2.9287,-2.9293,-2.9299,-2.946,0,0,-2.932,-2.9322,0,0,0,0,0,0,0,0,-2.9279,-2.9288,-2.9336,-2.9331,-2.9325,-2.9337,-2.9367,-2.9431,-2.9279,-2.9294,-2.9264,-2.9257,-2.931,-2.9315,-2.9332,-2.9461,-2.9462,-2.932,-2.9324,-2.9327,-2.9329,0,0,0,0,0,0,0,-2.9275,-2.9286,-2.9402,-2.9337,-2.933,-2.9296,-2.9297,-2.9379,-2.9336,-2.9292,-2.9282,-2.9287,-2.9306,-2.9326,-2.9332,-2.9462,-2.932,-2.9326,-2.933,-2.9332,-2.9723,-2.9729,0,0,0,0,0,0,-2.928,-2.9284,-2.9401,-2.9403,-2.9287,-2.9304,-2.9304,-2.9339,-2.9334,-2.9328,-2.9292,-2.928,-2.9318,-2.9324,-2.9332,-2.952,-2.9327,-2.9333,-2.9337,-2.9717,-2.9724,-2.9731,0,0,0,0,0,0,-2.9277,-2.9292,-2.94,-2.934,-2.9352,-2.9313,-2.9353,-2.9343,-2.9362,-2.9334,-2.9325,-2.932,-2.9313,-2.9323,-2.9429,-2.9519,-2.9336,-2.9342,-2.9709,-2.9719,-2.9728,-2.9897,0,0,0,0,0,0,-2.9273,-2.9292,-2.9353,-2.9343,-2.9355,-2.9497,-2.9358,-2.9347,-2.9374,-2.9359,-2.9358,-2.9352,-2.9309,-2.942,-2.9435,-2.9524,-2.9347,-2.9701,-2.9714,-2.9725,-2.9883,-2.9911,-2.9935,0,0,0,0,0,-2.9268,-2.94,-2.9356,-2.9371,-2.943,-2.9503,-2.951,-2.9457,-2.9382,-2.9442,-2.9424,-2.9352,-2.9506,-2.9432,-2.9448,-2.9541,-2.9695,-2.971,-2.9724,-2.9871,-2.9906,-2.9934,0,0,0,0,0,0,-2.9422,-2.9397,-2.9349,-2.9481,-2.9495,-2.9479,-2.9554,-2.9495,-2.9531,-2.9515,-2.9449,-2.945,-2.9567,-2.9564,-2.9482,-2.9695,-2.9587,-2.9606,-2.9694,-2.9726,-2.9751,-2.9751,-2.9353,0,0,0,0,0,-2.9471,-2.9532,-2.9507,-2.9626,-2.9635,-2.9594,-2.9623,-2.9581,-2.9593,-2.9598,-2.9587,-2.9602,-2.9653,-2.9689,-2.9734,-2.988,-2.9879,-2.9952,-2.9978,-2.9999,-3.0017,-3.0095,-3.0127,-2.9779,-2.9779,-2.9779,0,0,-2.9575,-2.9568,-2.9611,-2.9657,-2.9663,-2.9727,-2.96,-2.9674,-2.9721,-2.961,-2.971,-2.9702,-2.9713,-2.9841,-2.9896,-2.9841,-3.0112,-3.0018,-3.0035,-3.0041,-3.0113,-3.0146,-3.0175,-2.9789,-2.9787,-2.9785,0,0,-2.9795,-2.9796,-2.9896,-2.9904,-2.9913,-2.9884,-2.9908,-2.9901,-2.9891,-2.999,-2.9907,-2.9962,-3.0052,-3.0064,-3.0082,-3.0305,-3.0241,-3.0322,-3.0458,-3.0535,-3.0562,-3.0586,-3.0667,-3.0697,-3.0339,-3.0339,-3.0339,0,-2.9923,-3.0017,-2.9955,-3.0034,-3.0057,-2.9957,-3.0058,-3.0069,-3.0094,-3.0112,-3.0049,-3.0159,-3.016,-3.0289,-3.0343,-3.036,-3.0386,-3.0323,-3.0563,-3.0586,-3.0608,-3.0685,-3.0715,-3.0349,-3.0348,-3.0347,-3.0346,0,-3.0173,-3.0239,-3.0318,-3.0344,-3.0375,-3.0465,-3.0417,-3.0456,-3.0411,-3.0388,-3.049,-3.0487,-3.053,-3.0557,-3.0513,-3.068,-3.0645,-3.0574,-3.0465,-3.0652,-3.0723,-3.0752,-3.0363,-3.0359,-3.0357,-3.0354,0,0,-3.0495,-3.0484,-3.0514,-3.0524,-3.0526,-3.0577,-3.0661,-3.0702,-3.0738,-3.0757,-3.0828,-3.0905,-3.0838,-3.0859,-3.0815,-3.0882,-3.106,-3.0802,-3.0801,-3.0852,-3.1244,-3.13,-3.1335,-3.1016,-3.1022,-3.1026,-3.1244,0,-3.0713,-3.0857,-3.0803,-3.0952,-3.1012,-3.0917,-3.0991,-3.1,-3.0981,-3.103,-3.1008,-3.1065,-3.0972,-3.0984,-3.1045,-3.1026,-3.1139,-3.1009,-3.1083,-3.1086,-3.1086,-3.1372,-3.1431,-3.1637,-3.1271,-3.1276,-3.1279,0,-3.0987,-3.1016,-3.1171,-3.1162,-3.1185,-3.1253,-3.1286,-3.1333,-3.1342,-3.1323,-3.1345,-3.1286,-3.1369,-3.1257,-3.1371,-3.1284,-3.131,-3.1305,-3.1311,-3.1319,-3.1196,-3.1389,-3.1701,-3.1734,-3.1322,-3.1318,-3.1315,0,-3.1209,-3.1287,-3.139,-3.1401,-3.1393,-3.1442,-3.1441,-3.1443,-3.1471,-3.15,-3.1518,-3.1556,-3.1578,-3.1608,-3.1562,-3.1485,-3.1682,-3.1567,-3.167,-3.1672,-3.1719,-3.1717,-3.2043,-3.1732,-3.1732,-3.1731,-3.173,0,-3.1459,-3.1558,-3.1489,-3.1553,-3.1661,-3.1597,-3.1705,-3.1693,-3.1696,-3.1755,-3.1674,-3.1732,-3.1666,-3.1717,-3.1681,-3.1781,-3.1791,-3.1779,-3.1768,-3.1788,-3.179,-3.1806,-3.1792,-3.1739,-3.1737,-3.1736,-3.1734,0,-3.1727,-3.1685,-3.1791,-3.1773,-3.1771,-3.1851,-3.1836,-3.1894,-3.1868,-3.1944,-3.1959,-3.1918,-3.1974,-3.193,-3.1985,-3.196,-3.2093,-3.2061,-3.2091,-3.2083,-3.219,-3.2182,-3.254,-3.2584,-3.2243,-3.2246,-3.2249,0,-3.1891,-3.1965,-3.1954,-3.1988,-3.1992,-3.2047,-3.2075,-3.2014,-3.2047,-3.2061,-3.2118,-3.2166,-3.2203,-3.2297,-3.2273,-3.2314,-3.2284,-3.2407,-3.229,-3.2307,-3.2289,-3.2286,-3.2294,-3.2432,-3.2436,-3.2439,-3.2442,0,-3.2187,-3.2162,-3.2205,-3.2241,-3.2276,-3.2301,-3.232,-3.2353,-3.229,-3.2331,-3.2387,-3.2415,-3.247,-3.252,-3.2553,-3.2552,-3.2488,-3.2478,-3.2504,-3.2527,-3.2541,-3.2537,-3.2158,-3.2471,-3.2468,-3.2466,-3.2464,-3.2463,-3.2409,-3.247,-3.2473,-3.2523,-3.253,-3.255,-3.2603,-3.2583,-3.2628,-3.2669,-3.2629,-3.2698,-3.2702,-3.274,-3.2746,-3.2799,-3.2748,-3.2786,-3.2796,-3.2807,-3.2824,-3.2531,-3.2804,-3.2803,-3.2802,-3.2802,-3.2801,0,-3.2703,-3.2699,-3.2746,-3.2774,-3.2814,-3.2747,-3.2764,-3.2802,-3.2863,-3.2873,-3.2909,-3.2974,-3.3021,-3.3,-3.3042,-3.3088,-3.306,-3.3101,-3.3099,-3.31,-3.2866,-3.2839,-3.3124,-3.3124,-3.3123,-3.3123,-3.3123,-3.3123,-3.2861,-3.2961,-3.2936,-3.3038,-3.3033,-3.3099,-3.3115,-3.3132,-3.3139,-3.3215,-3.3254,-3.3238,-3.3236,-3.3276,-3.3317,-3.3309,-3.333,-3.3383,-3.3365,-3.3148,-3.3116,-3.3086,-3.3061,-3.3387,-3.3387,-3.3595,-3.3596,-3.3598]},{"header":{"parameterUnit":"m.s-1","parameterCategory":1,"la1":30.2991,"la2":30.254,"lo1":-89.0895,"lo2":-89.0444,"dy":0.0017,"dx":0.0017,"nx":28,"ny":28,"refTime":"2024-12-07T03:00:00:Z","depth":0,"parameterNumber":3,"parameterNumberName":"V-component_of_WINDS"},"data":[0,0,0,0,0,0,0,0,0,0,0,0,0,0,0,0,0,0,0,0,0,0,0,0,0,0,0,0,0,0,0,0,0,0,0,0,0,0,0,0,0,0,0,0,0,0,0,0,0,0,0,0,0,0,0,0,0,0,-4.8994,-4.8995,0,-4.9068,-4.9068,-4.9069,-4.8992,-4.8989,-4.8986,-4.8984,-4.9055,-4.9059,-4.9064,0,0,0,0,0,0,0,0,0,0,0,0,0,-4.8781,-4.8786,-4.8994,-4.8995,-4.8996,-4.9067,-4.9068,-4.9069,-4.8993,-4.8989,-4.8986,-4.8982,-4.9053,-4.9059,-4.9064,0,0,0,0,0,0,0,0,0,0,0,0,0,-4.8866,-4.8787,-4.8994,-4.8966,-4.8964,-4.9067,-4.9068,-4.907,-4.8994,-4.8989,-4.8985,-4.898,-4.9051,-4.9058,-4.9065,-4.9197,0,0,-4.9087,-4.909,0,0,0,0,0,0,0,0,-4.8861,-4.8874,-4.8969,-4.8968,-4.8967,-4.9016,-4.9019,-4.9112,-4.8995,-4.8982,-4.8983,-4.8978,-4.9045,-4.9053,-4.9076,-4.9201,-4.9204,-4.9087,-4.9091,-4.9094,-4.9096,0,0,0,0,0,0,0,-4.8856,-4.887,-4.9023,-4.8971,-4.8969,-4.8948,-4.8955,-4.9037,-4.9038,-4.8983,-4.8978,-4.8988,-4.9044,-4.9069,-4.9077,-4.9205,-4.9087,-4.9093,-4.9097,-4.91,-4.9439,-4.9444,0,0,0,0,0,0,-4.8853,-4.8866,-4.902,-4.9025,-4.8902,-4.8956,-4.8964,-4.9005,-4.9037,-4.9037,-4.8991,-4.8984,-4.906,-4.9069,-4.9079,-4.9235,-4.9094,-4.9101,-4.9105,-4.9434,-4.944,-4.9445,0,0,0,0,0,0,-4.8849,-4.8868,-4.9017,-4.8944,-4.8962,-4.8964,-4.9011,-4.9009,-4.9034,-4.9043,-4.9042,-4.9018,-4.9057,-4.9069,-4.9168,-4.9236,-4.9104,-4.911,-4.9429,-4.9436,-4.9443,-4.9548,0,0,0,0,0,0,-4.8843,-4.8867,-4.8919,-4.8946,-4.8966,-4.9107,-4.9015,-4.9013,-4.9047,-4.9038,-4.9068,-4.9068,-4.9054,-4.9158,-4.9175,-4.9243,-4.9116,-4.9422,-4.9432,-4.944,-4.9538,-4.9558,-4.9574,0,0,0,0,0,-4.8836,-4.8945,-4.8922,-4.8941,-4.9031,-4.9111,-4.9123,-4.9105,-4.9053,-4.9104,-4.9109,-4.9067,-4.9226,-4.9169,-4.9188,-4.9259,-4.9418,-4.9429,-4.944,-4.953,-4.9554,-4.9574,0,0,0,0,0,0,-4.8924,-4.8948,-4.8923,-4.9044,-4.9076,-4.9098,-4.9162,-4.9131,-4.9178,-4.9167,-4.9142,-4.915,-4.9254,-4.9266,-4.9202,-4.9387,-4.9313,-4.9328,-4.9376,-4.9398,-4.9416,-4.941,-4.9122,0,0,0,0,0,-4.8958,-4.9023,-4.904,-4.9145,-4.9163,-4.916,-4.9194,-4.9178,-4.921,-4.9223,-4.9236,-4.9267,-4.9324,-4.9362,-4.9414,-4.9539,-4.9544,-4.9597,-4.9615,-4.963,-4.9643,-4.9708,-4.9732,-4.9481,-4.9481,-4.948,0,0,-4.9028,-4.9049,-4.9092,-4.9163,-4.9186,-4.9253,-4.9172,-4.9246,-4.9294,-4.9234,-4.9328,-4.9338,-4.9371,-4.9484,-4.9534,-4.9497,-4.9713,-4.9644,-4.9656,-4.9661,-4.9722,-4.9745,-4.9767,-4.9488,-4.9487,-4.9486,0,0,-4.9189,-4.9213,-4.9302,-4.9327,-4.9364,-4.9361,-4.9382,-4.9409,-4.9414,-4.9508,-4.9464,-4.952,-4.9619,-4.9644,-4.967,-4.9839,-4.9802,-4.9857,-4.9951,-5.0014,-5.0034,-5.0052,-5.0111,-5.0132,-4.987,-4.987,-4.987,0,-4.9271,-4.9371,-4.9351,-4.9429,-4.946,-4.941,-4.9499,-4.9524,-4.9575,-4.9597,-4.9556,-4.9678,-4.9697,-4.9813,-4.9854,-4.9877,-4.9899,-4.9853,-5.0033,-5.005,-5.0066,-5.0122,-5.0145,-4.9876,-4.9876,-4.9875,-4.9874,0,-4.9469,-4.9539,-4.9606,-4.9659,-4.9698,-4.9781,-4.9772,-4.9813,-4.9793,-4.9794,-4.989,-4.9911,-4.9966,-4.9992,-4.9973,-5.0106,-5.0082,-5.0037,-4.9962,-5.0097,-5.0149,-5.017,-4.9886,-4.9883,-4.9881,-4.988,0,0,-4.9689,-4.9728,-4.9753,-4.9776,-4.9812,-4.9864,-4.9944,-4.9999,-5.0034,-5.0071,-5.0136,-5.022,-5.0179,-5.0208,-5.0191,-5.0247,-5.0378,-5.0195,-5.0195,-5.0227,-5.0523,-5.0556,-5.0581,-5.0353,-5.0357,-5.0361,-5.052,0,-4.985,-4.9989,-4.9973,-5.0106,-5.0168,-5.0121,-5.0189,-5.0218,-5.0221,-5.0273,-5.0275,-5.0334,-5.0276,-5.0293,-5.0347,-5.0351,-5.0436,-5.0339,-5.0411,-5.0414,-5.0404,-5.0608,-5.0644,-5.0793,-5.054,-5.0544,-5.0546,0,-5.0057,-5.0102,-5.0241,-5.0266,-5.0292,-5.0354,-5.0402,-5.0454,-5.0484,-5.0482,-5.0514,-5.0487,-5.0564,-5.0488,-5.0593,-5.0527,-5.0556,-5.0562,-5.0567,-5.0573,-5.0488,-5.0618,-5.084,-5.0862,-5.0578,-5.0576,-5.0573,0,-5.0202,-5.0297,-5.0392,-5.0413,-5.0445,-5.0489,-5.0504,-5.053,-5.0564,-5.0606,-5.0627,-5.0677,-5.0704,-5.0742,-5.0728,-5.0674,-5.0835,-5.0759,-5.0834,-5.0835,-5.087,-5.0868,-5.1099,-5.089,-5.089,-5.0889,-5.0889,0,-5.0383,-5.0469,-5.0457,-5.0516,-5.061,-5.059,-5.0684,-5.0692,-5.0716,-5.0774,-5.0735,-5.0789,-5.0768,-5.0821,-5.081,-5.0898,-5.091,-5.0909,-5.0905,-5.0913,-5.0913,-5.093,-5.0919,-5.0895,-5.0894,-5.0893,-5.0892,0,-5.056,-5.0556,-5.0656,-5.0678,-5.0686,-5.0754,-5.0772,-5.0826,-5.0825,-5.0899,-5.0914,-5.0913,-5.0973,-5.0963,-5.1029,-5.1021,-5.1131,-5.1114,-5.1121,-5.1117,-5.1192,-5.1185,-5.1442,-5.1474,-5.1246,-5.1248,-5.125,0,-5.0676,-5.0742,-5.0771,-5.0807,-5.0826,-5.0885,-5.0919,-5.0901,-5.0938,-5.0977,-5.1026,-5.1082,-5.1127,-5.1224,-5.1228,-5.1277,-5.1261,-5.1348,-5.1268,-5.1273,-5.1261,-5.1257,-5.1263,-5.1363,-5.1366,-5.1368,-5.137,0,-5.0882,-5.0876,-5.0928,-5.0979,-5.1021,-5.106,-5.1094,-5.1126,-5.111,-5.1153,-5.1215,-5.1249,-5.1317,-5.1373,-5.1419,-5.1432,-5.1398,-5.1395,-5.1415,-5.1422,-5.1423,-5.1423,-5.1163,-5.1389,-5.1387,-5.1386,-5.1385,-5.1384,-5.1031,-5.1086,-5.1115,-5.1174,-5.1198,-5.1231,-5.1282,-5.1288,-5.134,-5.1394,-5.1379,-5.1449,-5.1475,-5.1534,-5.1552,-5.1605,-5.1572,-5.1601,-5.1609,-5.1616,-5.1625,-5.1416,-5.1613,-5.1612,-5.1612,-5.1611,-5.1611,0,-5.1233,-5.1249,-5.1303,-5.1353,-5.1399,-5.1364,-5.14,-5.144,-5.1502,-5.153,-5.1575,-5.1644,-5.1698,-5.1706,-5.1756,-5.1797,-5.1782,-5.181,-5.1807,-5.181,-5.1651,-5.1629,-5.1821,-5.1821,-5.1821,-5.1821,-5.1821,-5.1821,-5.1344,-5.1435,-5.1433,-5.1535,-5.155,-5.1618,-5.1642,-5.1671,-5.1694,-5.1774,-5.1819,-5.1824,-5.1843,-5.1894,-5.1941,-5.1942,-5.1962,-5.1996,-5.1991,-5.1842,-5.1821,-5.1801,-5.178,-5.2001,-5.2001,-5.2145,-5.2146,-5.2147]}]]